"Timestamp","TZ","WindDir_Mean (deg)","WindSpd_Mean (km/h)","WindSpd_Min (km/h)","WindSpd_Max (km/h)","Temp_Mean (deg)","RH_Mean (%)","MSLP_Mean (hPa)","Rain_Acc (mm)","Rain_Intensity (mm/h)","Hail_Acc (hits/cm2)","Hail_Intensity (hits/cm2hr)","Solar_Mean (W/m2)"
2018/12/14 00:00:00.002,n,24,11.52,10.08,13.68,24.6,68.5,1006.22,0,0,0,0,0.026932
2018/12/14 00:01:00.000,n,44,16.919998,8.64,20.880002,24.6,68.4,1006.22,0,0,0,0,0.026932
2018/12/14 00:02:00.000,n,7,10.08,8.64,11.88,24.6,68.3,1006.32,0,0,0,0,0.029526
2018/12/14 00:03:00.000,n,356,11.52,10.440002,13.32,24.6,68.6,1006.32,0,0,0,0,0.026093
2018/12/14 00:04:00.000,n,27,9.36,4.32,16.2,24.6,68.6,1006.32,0,0,0,0,0.027809
2018/12/14 00:05:00.005,n,356,7.92,4.32,9.36,24.6,68.3,1006.22,0,0,0,0,0.029526
2018/12/14 00:06:00.002,n,2,13.32,8.64,17.64,24.6,68.2,1006.32,0,0,0,0,0.033913
2018/12/14 00:07:00.000,n,33,8.28,6.48,9.36,24.6,68.1,1006.42,0,0,0,0,0.027809
2018/12/14 00:08:00.000,n,338,11.52,8.28,15.12,24.6,68.1,1006.42,0,0,0,0,0.028687
2018/12/14 00:09:00.012,n,350,8.64,7.2,10.8,24.6,68.1,1006.42,0,0,0,0,0.026932
2018/12/14 00:10:00.000,n,6,11.16,9.72,12.96,24.6,68.1,1006.42,0,0,0,0,0.030441
2018/12/14 00:11:00.000,n,21,11.16,8.28,13.68,24.6,68.1,1006.42,0,0,0,0,0.033913
2018/12/14 00:12:00.004,n,343,10.440002,8.64,12.6,24.6,68.1,1006.42,0,0,0,0,0.032158
2018/12/14 00:13:00.001,n,354,15.12,12.24,19.08,24.6,67.9,1006.42,0,0,0,0,0.034752
2018/12/14 00:14:00.000,n,41,13.68,6.48,17.28,24.6,67.9,1006.42,0,0,0,0,0.028687
2018/12/14 00:15:00.000,n,29,14.04,13.32,15.84,24.6,68,1006.42,0,0,0,0,0.030441
2018/12/14 00:16:00.009,n,29,19.44,18.359998,20.16,24.6,67.8,1006.42,0,0,0,0,0.024338
2018/12/14 00:17:00.008,n,49,10.440002,9,12.96,24.6,67.9,1006.42,0,0,0,0,0.027809
2018/12/14 00:18:00.004,n,46,11.88,10.8,13.68,24.6,67.8,1006.42,0,0,0,0,0.029526
2018/12/14 00:19:00.001,n,25,15.48,11.16,18,24.6,67.8,1006.42,0,0,0,0,0.026932
2018/12/14 00:20:00.000,n,17,15.84,10.440002,18.72,24.6,67.7,1006.32,0,0,0,0,0.025215
2018/12/14 00:21:00.000,n,29,4.32,1.8,8.64,24.6,67.6,1006.32,0,0,0,0,0.027809
2018/12/14 00:22:00.000,n,347,15.84,14.76,16.919998,24.6,67.6,1006.32,0,0,0,0,0.026932
2018/12/14 00:23:00.006,n,5,18.72,17.64,20.16,24.6,67.6,1006.32,0,0,0,0,0.025215
2018/12/14 00:24:00.003,n,20,10.440002,3.96,14.76,24.6,67.6,1006.32,0,0,0,0,0.026093
2018/12/14 00:25:00.000,n,12,12.96,10.8,15.48,24.6,67.6,1006.32,0,0,0,0,0.025215
2018/12/14 00:26:00.014,n,16,5.04,1.8,9,24.6,67.6,1006.32,0,0,0,0,0.026932
2018/12/14 00:27:00.011,n,7,12.24,7.2,14.76,24.6,67.6,1006.32,0,0,0,0,0.033035
2018/12/14 00:28:00.000,n,59,19.8,16.919998,22.319998,24.6,67.6,1006.22,0,0,0,0,0.027809
2018/12/14 00:29:00.000,n,14,18.359998,16.2,20.880002,24.6,67.6,1006.22,0,0,0,0,0.027809
2018/12/14 00:30:00.002,n,10,8.64,6.12,12.24,24.6,67.7,1006.22,0,0,0,0,0.025215
2018/12/14 00:31:00.000,n,24,19.08,9,21.24,24.6,67.7,1006.22,0,0,0,0,0.025215
2018/12/14 00:32:00.000,n,356,24.119998,19.8,29.88,24.6,67.7,1006.22,0,0,0,0,0.026093
2018/12/14 00:33:00.010,n,48,5.76,2.52,9,24.6,67.8,1006.12,0,0,0,0,0.028687
2018/12/14 00:34:00.007,n,3,19.8,18,21.599998,24.6,67.8,1006.12,0,0,0,0,0.028687
2018/12/14 00:35:00.004,n,10,16.2,14.04,18.72,24.6,67.8,1006.12,0,0,0,0,0.025215
2018/12/14 00:36:00.001,n,38,11.16,1.8,18.359998,24.6,67.9,1006.12,0,0,0,0,0.030441
2018/12/14 00:37:00.000,n,348,12.6,7.56,14.76,24.6,67.8,1006.02,0,0,0,0,0.028687
2018/12/14 00:38:00.000,n,28,22.319998,18.359998,25.56,24.6,67.9,1005.92,0,0,0,0,0.027809
2018/12/14 00:39:00.000,n,4,23.759998,21.96,26.28,24.6,68.1,1006.02,0,0.1,0,0,0.034752
2018/12/14 00:40:00.000,n,22,15.48,5.4,20.519998,24.5,68.3,1006.02,0,0,0,0,0.028687
2018/12/14 00:41:00.005,n,18,12.96,6.12,21.599998,24.5,68.3,1006.02,0,0,0,0,0.026093
2018/12/14 00:42:00.011,n,26,13.32,12.24,16.56,24.5,68.4,1006.02,0,0,0,0,0.025215
2018/12/14 00:43:00.000,n,351,16.2,15.84,16.919998,24.5,68.5,1005.92,0,0,0,0,0.026093
2018/12/14 00:44:00.005,n,16,16.919998,12.6,20.16,24.5,68.7,1005.92,0,0,0,0,0.024338
2018/12/14 00:45:00.011,n,357,24.84,23.4,26.28,24.5,68.7,1005.82,0,0,0,0,0.02346
2018/12/14 00:46:00.000,n,37,15.48,12.6,18,24.5,68.8,1005.82,0,0,0,0,0.02346
2018/12/14 00:47:00.000,n,19,16.2,13.68,19.44,24.5,68.8,1005.82,0,0,0,0,0.021744
2018/12/14 00:48:00.000,n,22,16.56,15.84,18,24.5,68.9,1005.82,0,0,0,0,0.019951
2018/12/14 00:49:00.000,n,15,20.880002,16.919998,24.48,24.5,68.9,1005.72,0,0,0,0,0.018234
2018/12/14 00:50:00.005,n,52,9,6.84,11.88,24.5,68.9,1005.72,0,0,0,0,0.019112
2018/12/14 00:51:00.010,n,9,26.64,24.84,28.8,24.5,69,1005.72,0,0,0,0,0.017357
2018/12/14 00:52:00.000,n,6,22.68,18,27,24.5,69,1005.72,0,0,0,0,0.026932
2018/12/14 00:53:00.004,n,27,19.8,17.64,22.68,24.5,69.1,1005.72,0,0,0,0,0.02346
2018/12/14 00:54:00.010,n,50,9,3.6,13.68,24.5,69.1,1005.72,0,0,0,0,0.024338
2018/12/14 00:55:00.000,n,5,5.4,2.52,9.36,24.5,69.2,1005.82,0,0,0,0,0.01564
2018/12/14 00:56:00.000,n,114,2.88,0.72,4.32,24.5,69.3,1005.82,0,0,0,0,0.019112
2018/12/14 00:57:00.000,n,30,12.96,9.72,15.84,24.5,69.2,1005.82,0,0,0,0,0.016518
2018/12/14 00:58:00.000,n,14,11.88,10.8,14.04,24.5,69.3,1005.92,0,0,0,0,0.018234
2018/12/14 00:59:00.005,n,358,15.48,14.04,18,24.5,69.4,1005.82,0,0,0,0,0.019112
2018/12/14 01:00:00.010,n,349,16.919998,11.52,22.319998,24.5,69.4,1005.82,0,0,0,0,0.017357
2018/12/14 01:01:00.000,n,341,12.24,9.72,15.12,24.4,70.6,1005.82,0,0,0,0,0.018234
2018/12/14 01:02:00.005,n,53,5.04,1.08,12.24,24.4,69.7,1005.92,0,0,0,0,0.018234
2018/12/14 01:03:00.010,n,25,6.48,2.16,9.36,24.4,69.7,1005.92,0,0,0,0,0.021744
2018/12/14 01:04:00.000,n,351,16.919998,15.48,18.72,24.4,70,1005.82,0,0,0,0,0.024338
2018/12/14 01:05:00.000,n,40,12.96,11.52,15.12,24.4,69.9,1005.82,0,0,0,0,0.024338
2018/12/14 01:06:00.000,n,38,5.4,2.16,8.28,24.4,70.1,1005.82,0,0,0,0,0.032196
2018/12/14 01:07:00.000,n,49,7.2,1.8,12.96,24.4,70.1,1005.82,0,0,0,0,0.030479
2018/12/14 01:08:00.000,n,30,16.2,11.52,21.599998,24.4,70.2,1005.72,0,0,0,0,0.028725
2018/12/14 01:09:00.005,n,17,25.199998,22.319998,27.359998,24.4,70.4,1005.72,0,0,0,0,0.026131
2018/12/14 01:10:00.010,n,30,16.56,12.96,20.880002,24.4,70.5,1005.62,0,0,0,0,0.028725
2018/12/14 01:11:00.000,n,10,18,15.84,20.16,24.3,70.7,1005.62,0,0,0,0,0.033073
2018/12/14 01:12:00.004,n,39,12.24,6.84,17.28,24.3,70.8,1005.62,0,0,0,0,0.035706
2018/12/14 01:13:00.000,n,62,11.88,6.12,16.2,24.3,70.9,1005.72,0,0,0,0,0.032196
2018/12/14 01:14:00.000,n,37,8.64,5.4,17.64,24.3,71,1005.72,0,0,0,0,0.028725
2018/12/14 01:15:00.004,n,10,28.44,25.919998,31.68,24.3,71.1,1005.62,0,0,0,0,0.031319
2018/12/14 01:16:00.000,n,42,15.48,12.96,16.919998,24.3,71.2,1005.72,0,0,0,0,0.028725
2018/12/14 01:17:00.000,n,33,5.04,1.8,7.2,24.3,71.3,1005.72,0,0,0,0,0.030479
2018/12/14 01:18:00.004,n,6,26.64,24.119998,30.239998,24.3,71.4,1005.72,0,0,0,0,0.027847
2018/12/14 01:19:00.010,n,51,8.28,3.6,18,24.3,71.6,1005.82,0,0,0,0,0.029564
2018/12/14 01:20:00.015,n,33,12.96,6.48,22.68,24.3,71.7,1005.82,0,0,0,0,0.039139
2018/12/14 01:21:00.003,n,46,12.6,5.76,16.56,24.2,71.7,1005.82,0,0,0,0,0.032196
2018/12/14 01:22:00.000,n,327,10.08,4.32,14.76,24.2,71.8,1005.82,0,0,0,0,0.027847
2018/12/14 01:23:00.000,n,339,9,3.6,15.12,24.2,71.9,1005.82,0,0,0,0,0.02697
2018/12/14 01:24:00.003,n,3,11.88,6.48,17.28,24.2,72,1005.82,0,0,0,0,0.026131
2018/12/14 01:25:00.000,n,351,12.24,9.36,15.84,24.2,72,1005.82,0,0,0,0,0.030479
2018/12/14 01:26:00.000,n,6,8.28,5.04,10.440002,24.2,72.1,1006.02,0,0,0,0,0.033073
2018/12/14 01:27:00.002,n,9,5.04,1.8,7.2,24.2,72.2,1005.92,0,0,0,0,0.025253
2018/12/14 01:28:00.009,n,357,15.48,12.96,18.72,24.2,72.4,1006.02,0,0,0,0,0.031319
2018/12/14 01:29:00.000,n,345,16.56,10.8,19.44,24.2,72.4,1005.92,0,0,0,0,0.025253
2018/12/14 01:30:00.005,n,333,14.76,12.96,17.28,24.2,72.9,1006.02,0,0,0,0,0.024338
2018/12/14 01:31:00.000,n,7,16.56,12.24,18.72,24.2,72.5,1005.92,0,0,0,0,0.026131
2018/12/14 01:32:00.000,n,327,18.359998,16.2,20.880002,24.2,72.9,1005.92,0,0,0,0,0.028725
2018/12/14 01:33:00.005,n,356,15.48,14.4,16.919998,24.2,72.6,1005.92,0,0,0,0,0.032196
2018/12/14 01:34:00.000,n,326,8.64,7.56,10.440002,24.2,73.2,1005.92,0,0,0,0,0.028725
2018/12/14 01:35:00.000,n,4,21.96,20.880002,22.319998,24.2,72.7,1005.82,0,0,0,0,0.02697
2018/12/14 01:36:00.004,n,343,9,5.4,11.16,24.1,73.2,1005.92,0,0,0,0,0.02697
2018/12/14 01:37:00.010,n,0,13.68,9.36,16.919998,24.1,73.2,1005.82,0,0,0,0,0.025253
2018/12/14 01:38:00.015,n,12,10.440002,8.64,12.6,24.1,73.1,1005.92,0,0,0,0,0.024338
2018/12/14 01:39:00.003,n,339,14.76,12.96,16.2,24.1,73.3,1005.82,0,0,0,0,0.02697
2018/12/14 01:40:00.000,n,339,25.199998,23.759998,28.08,24.1,73.1,1005.82,0,0,0,0,0.022621
2018/12/14 01:41:00.000,n,2,11.52,9.72,12.96,24.1,73.1,1005.82,0,0,0,0,0.023499
2018/12/14 01:42:00.003,n,14,11.16,6.84,15.12,24.1,73.2,1005.82,0,0,0,0,0.02697
2018/12/14 01:43:00.000,n,46,9.36,4.68,13.32,24.1,73.4,1005.82,0,0,0,0,0.022621
2018/12/14 01:44:00.000,n,353,9.36,7.92,12.6,24.1,73.3,1005.82,0,0,0,0,0.020027
2018/12/14 01:45:00.004,n,8,9,5.4,13.68,24.1,73.3,1005.82,0,0,0,0,0.021744
2018/12/14 01:46:00.009,n,14,17.64,16.2,20.519998,24.1,73.3,1005.72,0,0,0,0,0.034828
2018/12/14 01:47:00.013,n,14,13.32,12.24,14.04,24,73.4,1005.72,0,0,0,0,0.040054
2018/12/14 01:48:00.002,n,8,11.16,6.84,14.4,24,73.4,1005.72,0,0,0,0,0.03746
2018/12/14 01:49:00.000,n,343,14.04,9.36,18.359998,24,73.4,1005.72,0,0,0,0,0.0383
2018/12/14 01:50:00.000,n,357,11.52,8.28,14.4,24,73.4,1005.72,0,0,0,0,0.033951
2018/12/14 01:51:00.001,n,29,9.72,4.32,11.88,24,73.4,1005.72,0,0,0,0,0.033951
2018/12/14 01:52:00.006,n,24,7.2,5.76,8.64,24,73.4,1005.82,0,0,0,0,0.036583
2018/12/14 01:53:00.000,n,47,10.440002,7.56,14.04,24,73.5,1005.82,0,0,0,0,0.040894
2018/12/14 01:54:00.000,n,306,1.44,0.36,2.52,24,73.5,1005.82,0,0,0,0,0.040054
2018/12/14 01:55:00.005,n,351,10.440002,8.64,13.68,24,73.5,1005.82,0,0,0,0,0.039177
2018/12/14 01:56:00.011,n,0,4.68,3.96,5.04,24,73.5,1005.82,0,0,0,0,0.034828
2018/12/14 01:57:00.016,n,0,10.440002,8.64,11.52,24,73.6,1005.92,0,0,0,0,0.0383
2018/12/14 01:58:00.000,n,34,13.32,7.92,15.84,24,73.5,1005.72,0,0,0,0,0.035667
2018/12/14 01:59:00.000,n,249,6.12,2.88,11.52,24,73.6,1005.82,0,0,0,0,0.034828
2018/12/14 02:00:00.000,n,35,15.48,14.4,16.919998,24,73.6,1005.82,0,0,0,0,0.032234
2018/12/14 02:01:00.003,n,2,7.56,6.48,8.28,24,73.6,1005.82,0,0,0,0,0.036583
2018/12/14 02:02:00.008,n,7,15.84,12.96,16.919998,24,73.7,1005.72,0,0,0,0,0.036583
2018/12/14 02:03:00.000,n,50,5.04,2.88,7.56,24,73.8,1005.72,0,0,0,0,0.03746
2018/12/14 02:04:00.002,n,30,7.2,1.44,9.72,24,74.2,1005.72,0,0,0,0,0.034828
2018/12/14 02:05:00.008,n,22,10.8,6.12,16.2,24,73.8,1005.62,0,0,0,0,0.03746
2018/12/14 02:06:00.013,n,19,8.64,6.12,11.16,23.9,73.9,1005.62,0,0,0,0,0.035667
2018/12/14 02:07:00.002,n,24,12.6,9.36,13.68,23.9,73.8,1005.62,0,0,0,0,0.0383
2018/12/14 02:08:00.000,n,14,15.48,13.32,17.28,23.9,73.9,1005.62,0,0,0,0,0.041809
2018/12/14 02:09:00.000,n,18,5.4,2.88,7.56,23.9,74,1005.62,0,0,0,0,0.041809
2018/12/14 02:10:00.001,n,33,7.56,2.16,10.08,23.9,74.1,1005.62,0,0,0,0,0.041809
2018/12/14 02:11:00.006,n,17,6.12,3.6,8.64,23.9,74.1,1005.62,0,0,0,0,0.041809
2018/12/14 02:12:00.000,n,14,9,7.92,10.08,23.9,74.2,1005.62,0,0,0,0,0.035667
2018/12/14 02:13:00.000,n,33,2.88,2.16,3.6,23.9,74.4,1005.62,0,0,0,0,0.034828
2018/12/14 02:14:00.006,n,18,6.48,4.68,8.28,23.9,74.3,1005.52,0,0,0,0,0.03746
2018/12/14 02:15:00.012,n,28,1.08,0.36,2.52,23.9,74.3,1005.52,0,0,0,0,0.036583
2018/12/14 02:16:00.000,n,44,3.96,2.88,4.68,23.9,74.2,1005.52,0,0,0,0,0.040054
2018/12/14 02:17:00.000,n,350,11.52,10.08,12.6,23.9,74.2,1005.42,0,0,0,0,0.044403
2018/12/14 02:18:00.000,n,40,7.2,4.32,10.08,23.9,74.3,1005.42,0,0,0,0,0.047874
2018/12/14 02:19:00.001,n,40,7.56,6.12,8.28,23.8,74.4,1005.42,0,0,0,0,0.043526
2018/12/14 02:20:00.007,n,33,4.32,3.6,5.04,23.8,74.4,1005.42,0,0,0,0,0.0383
2018/12/14 02:21:00.000,n,12,3.24,1.8,6.48,23.8,74.4,1005.42,0,0,0,0,0.03746
2018/12/14 02:22:00.000,n,49,5.4,4.32,6.12,23.8,74.5,1005.32,0,0,0,0,0.046158
2018/12/14 02:23:00.007,n,3,12.24,11.16,12.96,23.8,74.5,1005.32,0,0,0,0,0.040054
2018/12/14 02:24:00.014,n,17,6.48,6.12,7.2,23.8,74.6,1005.32,0,0,0,0,0.041809
2018/12/14 02:25:00.002,n,357,7.92,7.2,8.64,23.8,74.6,1005.32,0,0,0,0,0.042648
2018/12/14 02:26:00.000,n,50,13.32,9,15.84,23.8,74.5,1005.12,0,0,0,0,0.040894
2018/12/14 02:27:00.000,n,354,23.4,21.96,25.199998,23.8,74.7,1005.22,0,0,0,0,0.043526
2018/12/14 02:28:00.003,n,3,12.24,10.440002,13.68,23.8,74.8,1005.22,0,0,0,0,0.040054
2018/12/14 02:29:00.008,n,26,7.92,6.84,8.64,23.8,74.9,1005.22,0,0,0,0,0.039177
2018/12/14 02:30:00.000,n,22,12.6,9.36,14.76,23.8,74.9,1005.12,0,0,0,0,0.03746
2018/12/14 02:31:00.002,n,25,15.84,14.04,18.359998,23.8,74.9,1005.12,0,0,0,0,0.03746
2018/12/14 02:32:00.008,n,11,13.68,12.6,14.76,23.7,75,1005.12,0,0,0,0,0.0383
2018/12/14 02:33:00.014,n,45,7.92,3.96,10.8,23.7,75,1005.22,0,0,0,0,0.035667
2018/12/14 02:34:00.002,n,7,11.16,7.56,12.96,23.7,74.9,1005.22,0,0,0,0,0.040894
2018/12/14 02:35:00.000,n,353,10.440002,8.64,11.88,23.7,74.9,1005.22,0,0,0,0,0.039177
2018/12/14 02:36:00.000,n,45,17.64,9.36,21.24,23.7,74.9,1005.22,0,0,0,0,0.042648
2018/12/14 02:37:00.001,n,8,13.68,11.52,15.48,23.7,74.9,1005.22,0,0,0,0,0.039177
2018/12/14 02:38:00.008,n,4,9,8.28,9.72,23.7,75.2,1005.22,0,0,0,0,0.042648
2018/12/14 02:39:00.000,n,356,16.56,11.16,20.16,23.7,75,1005.22,0,0,0,0,0.03746
2018/12/14 02:40:00.003,n,38,16.919998,15.12,18.359998,23.7,74.9,1005.22,0,0,0,0,0.0383
2018/12/14 02:41:00.009,n,65,7.2,3.96,9.72,23.7,75,1005.22,0,0,0,0,0.03746
2018/12/14 02:42:00.015,n,30,6.12,2.16,7.92,23.7,75,1005.22,0,0,0,0,0.036583
2018/12/14 02:43:00.000,n,23,12.6,11.88,13.32,23.7,75,1005.22,0,0,0,0,0.035667
2018/12/14 02:44:00.000,n,8,10.440002,7.92,11.88,23.7,74.9,1005.22,0,0,0,0,0.034828
2018/12/14 02:45:00.000,n,10,5.4,1.44,9.36,23.7,75,1005.32,0,0,0,0,0.03746
2018/12/14 02:46:00.004,n,342,12.96,10.8,15.12,23.7,74.7,1005.22,0,0,0,0,0.03746
2018/12/14 02:47:00.008,n,28,12.6,6.12,14.76,23.7,74.7,1005.22,0,0,0,0,0.03746
2018/12/14 02:48:00.000,n,10,6.84,2.52,11.52,23.7,74.8,1005.32,0,0,0,0,0.041809
2018/12/14 02:49:00.003,n,18,10.440002,8.64,10.8,23.7,74.8,1005.32,0,0,0,0,0.0383
2018/12/14 02:50:00.009,n,50,6.84,4.32,8.28,23.7,74.8,1005.22,0,0,0,0,0.039177
2018/12/14 02:51:00.014,n,3,10.08,4.68,13.32,23.7,74.8,1005.22,0,0,0,0,0.035667
2018/12/14 02:52:00.000,n,16,9,8.28,10.440002,23.7,74.9,1005.12,0,0,0,0,0.034828
2018/12/14 02:53:00.000,n,2,10.440002,9.36,14.4,23.7,74.9,1005.12,0,0,0,0,0.035667
2018/12/14 02:54:00.000,n,23,13.32,11.52,14.4,23.7,75,1005.12,0,0,0,0,0.0383
2018/12/14 02:55:00.003,n,39,16.56,7.2,23.04,23.7,75,1005.12,0,0,0,0,0.033073
2018/12/14 02:56:00.009,n,45,11.52,8.64,12.96,23.7,74.9,1005.02,0,0,0,0,0.031357
2018/12/14 02:57:00.000,n,37,13.68,9.36,16.56,23.7,74.9,1005.02,0,0,0,0,0.041809
2018/12/14 02:58:00.004,n,348,11.88,11.52,13.68,23.7,75,1005.02,0,0,0,0,0.033073
2018/12/14 02:59:00.008,n,341,12.96,10.8,17.28,23.7,75.3,1005.02,0,0,0,0,0.03746
2018/12/14 03:00:00.015,n,7,14.4,13.68,15.48,23.7,75.1,1005.02,0,0,0,0,0.042648
2018/12/14 03:01:00.000,n,27,8.28,7.92,9.72,23.7,75,1005.02,0,0,0,0,0.03746
2018/12/14 03:02:00.000,n,39,8.28,2.52,14.76,23.6,75.1,1005.02,0,0,0,0,0.036583
2018/12/14 03:03:00.000,n,31,15.48,14.04,16.56,23.6,75.1,1005.02,0,0,0,0,0.036583
2018/12/14 03:04:00.005,n,40,12.6,11.16,15.84,23.6,75.2,1004.92,0,0,0,0,0.03746
2018/12/14 03:05:00.000,n,19,16.919998,14.76,20.519998,23.6,75.3,1004.82,0,0,0,0,0.033073
2018/12/14 03:06:00.000,n,16,21.599998,4.68,24.84,23.6,75.3,1004.82,0,0,0,0,0.036583
2018/12/14 03:07:00.004,n,1,14.76,12.96,15.84,23.6,75.4,1004.82,0,0,0,0,0.035667
2018/12/14 03:08:00.010,n,65,7.56,1.44,12.24,23.6,75.4,1004.82,0,0,0,0,0.034828
2018/12/14 03:09:00.014,n,358,16.919998,15.12,17.64,23.6,75.3,1004.82,0,0,0,0,0.039177
2018/12/14 03:10:00.000,n,21,10.8,7.56,12.96,23.6,75.4,1004.82,0,0,0,0,0.036583
2018/12/14 03:11:00.000,n,14,17.64,16.2,20.16,23.6,75.5,1004.82,0,0,0,0,0.036583
2018/12/14 03:12:00.000,n,24,8.28,3.6,11.16,23.6,75.5,1004.82,0,0,0,0,0.03746
2018/12/14 03:13:00.003,n,43,16.56,14.4,18,23.6,75.7,1004.82,0,0,0,0,0.0383
2018/12/14 03:14:00.008,n,2,12.96,11.16,17.64,23.6,75.8,1004.82,0,0,0,0,0.03746
2018/12/14 03:15:00.000,n,0,14.4,12.96,15.48,23.6,75.5,1004.92,0,0,0,0,0.027885
2018/12/14 03:16:00.002,n,36,11.16,6.84,12.96,23.6,75.6,1004.92,0,0,0,0,0.032234
2018/12/14 03:17:00.008,n,7,11.88,9,15.84,23.6,75.5,1004.92,0,0,0,0,0.034828
2018/12/14 03:18:00.014,n,4,9,2.88,15.12,23.5,75.6,1005.02,0,0,0,0,0.033073
2018/12/14 03:19:00.001,n,15,6.12,5.4,7.92,23.5,75.6,1005.02,0,0,0,0,0.033073
2018/12/14 03:20:00.000,n,330,14.4,11.16,17.28,23.5,75.6,1005.02,0,0,0,0,0.035667
2018/12/14 03:21:00.000,n,35,13.68,12.6,14.76,23.5,75.5,1005.02,0,0,0,0,0.033073
2018/12/14 03:22:00.001,n,90,2.16,1.08,3.96,23.6,75.5,1005.02,0,0,0,0,0.029602
2018/12/14 03:23:00.007,n,46,6.12,1.8,10.08,23.6,75.4,1005.12,0,0,0,0,0.027008
2018/12/14 03:24:00.000,n,356,9,6.12,11.16,23.6,75.4,1005.12,0,0,0,0,0.034828
2018/12/14 03:25:00.000,n,297,5.04,2.52,7.2,23.6,75.8,1005.22,0,0,0,0,0.028725
2018/12/14 03:26:00.006,n,0,11.16,10.8,11.88,23.6,75.6,1005.22,0,0,0,0,0.030479
2018/12/14 03:27:00.012,n,357,10.440002,9.36,11.16,23.6,75.4,1005.22,0,0,0,0,0.029602
2018/12/14 03:28:00.001,n,22,7.92,6.12,10.08,23.6,75.5,1005.32,0,0,0,0,0.027008
2018/12/14 03:29:00.000,n,274,5.4,3.24,6.12,23.6,75.5,1005.42,0,0,0,0,0.030479
2018/12/14 03:30:00.000,n,317,3.24,1.44,9,23.6,76.2,1005.42,0,0,0,0,0.030479
2018/12/14 03:31:00.001,n,21,7.2,6.48,7.56,23.7,76.3,1005.42,0,0,0,0,0.030479
2018/12/14 03:32:00.007,n,18,7.92,6.12,8.64,23.7,75.4,1005.42,0,0,0,0,0.036583
2018/12/14 03:33:00.000,n,19,9.36,6.12,10.8,23.6,75.6,1005.42,0,0,0,0,0.032234
2018/12/14 03:34:00.001,n,0,9.36,8.64,11.52,23.6,75.6,1005.42,0,0,0,0,0.032234
2018/12/14 03:35:00.007,n,285,11.16,10.08,12.6,23.6,76.6,1005.42,0,0,0,0,0.030479
2018/12/14 03:36:00.012,n,289,5.76,1.44,8.64,23.7,76.4,1005.52,0,0,0,0,0.028725
2018/12/14 03:37:00.001,n,335,3.6,2.16,5.4,23.7,76.2,1005.52,0,0,0,0,0.032234
2018/12/14 03:38:00.000,n,319,2.16,0.72,3.24,23.7,76,1005.62,0,0,0,0,0.030479
2018/12/14 03:39:00.000,n,344,2.52,1.08,5.04,23.7,76.4,1005.62,0,0,0,0,0.032234
2018/12/14 03:40:00.001,n,282,11.16,7.56,15.48,23.7,76.2,1005.52,0,0,0,0,0.031357
2018/12/14 03:41:00.009,n,348,5.76,4.68,6.84,23.7,76.3,1005.52,0,0,0,0,0.0383
2018/12/14 03:42:00.000,n,282,5.04,3.6,6.84,23.7,76.3,1005.52,0,0,0,0,0.031357
2018/12/14 03:43:00.002,n,301,2.52,0.72,5.04,23.6,76.1,1005.52,0,0,0,0,0.03746
2018/12/14 03:44:00.009,n,274,5.04,3.96,6.48,23.6,76.2,1005.62,0,0,0,0,0.035667
2018/12/14 03:45:00.015,n,252,7.2,5.76,8.64,23.6,75.8,1005.62,0,0,0,0,0.032234
2018/12/14 03:46:00.000,n,270,3.6,3.6,3.96,23.6,76.2,1005.62,0,0,0,0,0.0383
2018/12/14 03:47:00.000,n,212,1.8,0.36,3.24,23.6,77.3,1005.62,0,0,0,0,0.031357
2018/12/14 03:48:00.000,n,219,3.6,2.52,5.04,23.7,76.3,1005.62,0,0,0,0,0.029602
2018/12/14 03:49:00.004,n,255,6.48,6.12,7.2,23.6,75.9,1005.62,0,0,0,0,0.03746
2018/12/14 03:50:00.009,n,257,7.2,3.96,7.56,23.6,76.4,1005.72,0,0,0,0,0.034828
2018/12/14 03:51:00.000,n,172,1.08,0.36,1.8,23.6,76.2,1005.72,0,0,0,0,0.031357
2018/12/14 03:52:00.003,n,328,1.44,0.72,2.16,23.5,76.1,1005.72,0,0,0,0,0.029602
2018/12/14 03:53:00.008,n,218,2.52,1.44,3.6,23.5,76.9,1005.72,0,0,0,0,0.034828
2018/12/14 03:54:00.014,n,267,4.68,4.32,5.4,23.6,76.5,1005.72,0,0,0,0,0.033073
2018/12/14 03:55:00.000,n,242,5.4,4.32,6.12,23.6,76.2,1005.72,0,0,0,0,0.033951
2018/12/14 03:56:00.000,n,259,2.52,2.16,3.6,23.5,76.2,1005.72,0,0,0,0,0.034828
2018/12/14 03:57:00.000,n,357,6.48,6.12,7.2,23.5,76.7,1005.72,0,0,0,0,0.036583
2018/12/14 03:58:00.003,n,10,5.04,3.6,6.12,23.5,76.1,1005.72,0,0,0,0,0.036583
2018/12/14 03:59:00.008,n,38,1.08,0.36,2.16,23.5,76.3,1005.72,0,0,0,0,0.040054
2018/12/14 04:00:00.000,n,358,1.08,0.36,2.16,23.5,76.2,1005.72,0,0,0,0,0.036583
2018/12/14 04:01:00.002,n,9,3.6,2.52,3.96,23.5,76.1,1005.72,0,0,0,0,0.033073
2018/12/14 04:02:00.009,n,15,3.96,3.96,4.32,23.5,75.9,1005.72,0,0,0,0,0.035667
2018/12/14 04:03:00.014,n,16,5.76,5.04,6.48,23.5,75.9,1005.72,0,0,0,0,0.0383
2018/12/14 04:04:00.000,n,30,2.88,1.44,4.32,23.5,76.1,1005.62,0,0,0,0,0.039177
2018/12/14 04:05:00.000,n,33,2.52,1.44,3.6,23.5,76,1005.62,0,0,0,0,0.040894
2018/12/14 04:06:00.000,n,39,6.12,5.4,7.2,23.5,75.9,1005.62,0,0,0,0,0.034828
2018/12/14 04:07:00.003,n,40,5.4,1.8,7.56,23.5,76,1005.52,0,0,0,0,0.035667
2018/12/14 04:08:00.008,n,22,7.56,7.2,8.64,23.4,76,1005.52,0,0,0,0,0.036583
2018/12/14 04:09:00.000,n,29,6.48,4.68,7.56,23.4,76,1005.42,0,0,0,0,0.035667
2018/12/14 04:10:00.002,n,23,3.96,0.36,6.48,23.4,76.2,1005.42,0,0,0,0,0.0383
2018/12/14 04:11:00.009,n,38,8.64,7.2,10.08,23.4,76.1,1005.42,0,0,0,0,0.035667
2018/12/14 04:12:00.014,n,22,8.28,7.56,9,23.4,76.2,1005.42,0,0,0,0,0.042648
2018/12/14 04:13:00.000,n,33,6.12,5.4,7.56,23.4,76.3,1005.42,0,0,0,0,0.0383
2018/12/14 04:14:00.000,n,27,5.4,3.96,7.2,23.4,76.3,1005.52,0,0,0,0,0.0383
2018/12/14 04:15:00.000,n,304,3.6,1.8,4.68,23.4,76.3,1005.62,0,0,0,0,0.041809
2018/12/14 04:16:00.003,n,346,5.04,3.96,5.76,23.4,76.5,1005.62,0,0,0,0,0.035667
2018/12/14 04:17:00.008,n,67,2.52,1.08,4.32,23.4,76.4,1005.62,0,0,0,0,0.040054
2018/12/14 04:18:00.000,n,267,4.68,2.88,5.4,23.4,76.5,1005.72,0,0,0,0,0.040054
2018/12/14 04:19:00.003,n,304,1.44,0.36,1.8,23.4,76.5,1005.72,0,0,0,0,0.039177
2018/12/14 04:20:00.009,n,261,3.6,3.6,3.96,23.5,76.3,1005.72,0,0,0,0,0.044403
2018/12/14 04:21:00.014,n,274,5.4,4.68,6.48,23.4,76.3,1005.72,0,0,0,0,0.044403
2018/12/14 04:22:00.000,n,260,1.08,1.08,1.8,23.4,76.3,1005.72,0,0,0,0,0.047035
2018/12/14 04:23:00.000,n,64,1.44,0.72,2.16,23.4,76.4,1005.72,0,0,0,0,0.048752
2018/12/14 04:24:00.000,n,119,0.72,0.36,1.08,23.5,76.4,1005.82,0,0,0,0,0.056572
2018/12/14 04:25:00.003,n,78,1.44,0.36,1.8,23.5,76.2,1005.82,0,0,0,0,0.059204
2018/12/14 04:26:00.008,n,6,8.28,7.2,9,23.5,76.1,1005.82,0,0,0,0,0.066986
2018/12/14 04:27:00.000,n,348,1.44,0.36,2.88,23.5,76,1005.82,0,0,0,0,0.073128
2018/12/14 04:28:00.002,n,356,5.76,3.96,7.56,23.5,76.1,1005.82,0,0,0,0,0.08358
2018/12/14 04:29:00.007,n,263,5.76,5.04,6.84,23.5,76.1,1005.92,0,0,0,0,0.092239
2018/12/14 04:30:00.013,n,337,7.2,6.12,8.64,23.5,76.5,1005.92,0,0,0,0,0.105324
2018/12/14 04:31:00.002,n,336,7.56,6.84,10.08,23.5,76.7,1005.92,0,0,0,0,0.116615
2018/12/14 04:32:00.000,n,1,5.76,4.68,7.2,23.5,76,1005.92,0,0,0,0,0.140953
2018/12/14 04:33:00.000,n,343,5.76,5.04,6.48,23.5,76.5,1005.92,0,0,0,0,0.161819
2018/12/14 04:34:00.001,n,9,3.24,2.88,3.96,23.5,76.1,1005.82,0,0,0,0,0.193977
2018/12/14 04:35:00.007,n,23,7.56,6.84,8.64,23.5,76.1,1005.82,0,0,0,0,0.233078
2018/12/14 04:36:00.000,n,61,4.68,1.8,6.84,23.5,76.1,1005.82,0,0,0,0,0.267868
2018/12/14 04:37:00.000,n,30,4.32,2.52,5.4,23.5,76.2,1005.92,0,0,0,0,0.320015
2018/12/14 04:38:00.008,n,357,6.84,6.48,7.2,23.5,76.2,1005.92,0,0,0,0,0.362587
2018/12/14 04:39:00.013,n,0,3.96,2.16,5.76,23.4,76.3,1005.92,0,0,0,0,0.416412
2018/12/14 04:40:00.001,n,5,2.52,1.08,3.96,23.4,76.4,1005.92,0,0,0,0,0.476303
2018/12/14 04:41:00.000,n,38,6.12,4.32,7.2,23.4,76.3,1005.92,0,0,0,0,0.543137
2018/12/14 04:42:00.000,n,339,2.88,1.8,3.6,23.4,76.4,1005.92,0,0,0,0,0.612221
2018/12/14 04:43:00.002,n,352,4.32,2.88,5.4,23.5,76.5,1005.92,0,0,0,0,0.678406
2018/12/14 04:44:00.008,n,5,4.68,4.32,4.68,23.5,76.3,1005.92,0,0,0,0,0.76107
2018/12/14 04:45:00.000,n,128,0.72,0.72,1.08,23.5,76.5,1005.82,0,0,0,0,0.855026
2018/12/14 04:46:00.001,n,352,2.88,2.52,3.24,23.5,76.4,1005.82,0,0,0,0,0.965424
2018/12/14 04:47:00.007,n,13,5.76,3.96,6.12,23.5,76.5,1005.82,0,0,0,0,1.119194
2018/12/14 04:48:00.014,n,14,2.52,2.16,3.24,23.5,76.4,1005.82,0,0,0,0,1.358643
2018/12/14 04:49:00.001,n,24,4.32,3.24,5.4,23.5,76.3,1005.82,0,0,0,0,1.65062
2018/12/14 04:50:00.000,n,31,5.76,4.32,6.48,23.5,76.4,1005.82,0,0,0,0,1.98803
2018/12/14 04:51:00.000,n,15,3.24,1.08,5.4,23.5,76.3,1005.82,0,0,0,0,2.340775